Wind_Speed
27 26 31 40 37 39 44 48 51 55 57 57 56 55 51 54 59 49 39 25 17 5 20 26 21 27 23 20 13 25 13 9 10 7 5 4 3 7 5 10 8 10 7 6 8 6 8 11 8 6 4 4 4 4
16 14 21 22 23 31 37 37 42 51 57 61 60 55 50 55 60 49 35 28 23 6 16 19 19 11 25 23 18 31 4 23 9 5 4 3 3 5 9 7 9 6 4 3 2 0 8 6 2 3 2 5 5 4
9 12 11 17 28 31 38 37 39 44 54 58 57 54 59 63 52 42 39 28 20 27 18 16 13 12 14 12 18 19 10 8 8 8 7 3 4 7 6 6 9 8 6 1 2 7 8 5 4 4 4 4 4 3
10 24 25 23 31 36 39 43 42 51 60 64 66 67 64 53 44 34 38 36 24 19 9 10 8 11 15 15 12 12 15 10 14 11 5 3 3 3 5 1 7 7 10 7 3 5 6 7 7 7 5 4 4 2
18 27 39 42 50 51 53 57 60 65 69 70 66 60 56 46 41 39 35 21 26 15 12 19 23 15 13 13 12 13 18 17 15 6 2 3 3 3 1 2 3 7 8 6 1 10 7 8 10 8 7 6 3 2
26 26 43 53 56 59 67 71 72 67 68 66 63 54 51 44 39 38 19 12 16 36 18 5 10 15 18 19 19 17 14 11 6 6 4 4 2 4 2 3 5 6 3 4 2 9 5 10 9 7 7 4 2 0
28 34 34 48 56 59 63 63 62 63 60 53 48 46 45 43 31 17 12 23 22 20 10 6 6 5 12 15 15 13 10 7 7 4 1 4 5 1 1 3 7 4 6 7 9 11 11 11 8 7 6 4 2 1
28 34 39 43 46 52 57 59 57 58 54 48 46 45 37 25 26 30 34 26 21 15 9 4 4 11 7 13 7 4 7 5 3 3 3 3 5 2 2 5 3 6 7 10 10 1 7 9 9 7 5 4 1 1
26 30 31 38 44 55 48 47 46 46 44 45 42 37 32 22 13 25 24 16 12 8 7 4 9 6 8 6 9 5 2 2 2 2 3 4 4 3 5 4 6 9 10 8 7 8 8 8 7 5 4 2 1 2
29 30 34 35 37 39 40 45 45 43 43 42 35 21 8 14 34 27 13 4 5 6 5 6 13 7 17 13 4 5 2 3 3 3 6 3 3 7 3 1 5 8 7 10 9 8 7 6 5 4 3 2 1 1
31 33 34 35 38 40 40 40 39 38 34 24 10 8 29 24 8 4 5 4 4 3 6 12 19 13 15 6 4 3 3 3 4 4 4 4 3 6 6 7 9 10 10 6 6 7 4 6 6 4 3 2 1 1
29 32 32 34 37 38 35 34 35 28 18 13 22 26 15 4 5 5 2 2 2 4 8 15 21 17 10 7 5 3 3 2 2 8 3 3 5 12 11 11 11 10 10 10 9 10 9 8 6 4 3 1 0 2
30 30 30 30 30 31 29 25 22 21 30 29 14 5 1 4 3 2 5 3 5 7 18 21 10 7 6 5 5 2 3 2 11 3 3 4 14 13 13 12 11 10 10 11 11 10 9 7 5 5 3 2 2 4
28 26 25 25 25 24 22 31 29 25 13 6 4 5 4 3 4 4 6 7 8 20 26 22 10 5 5 3 3 3 2 5 4 4 4 6 12 14 14 13 13 13 13 13 10 8 5 3 1 0 2 3 2 3
30 29 28 26 25 21 18 14 11 9 6 6 6 5 5 4 6 5 8 16 25 26 22 14 8 6 3 4 2 4 4 4 5 2 5 11 13 15 15 14 13 13 12 9 7 5 3 2 1 2 2 2 3 3
31 31 24 23 20 16 15 9 11 10 7 6 7 6 7 10 9 10 17 18 19 16 12 7 4 3 2 5 3 4 6 3 4 5 11 12 13 14 15 14 15 12 10 7 5 4 3 2 1 1 2 2 3 3
26 22 19 20 14 13 11 10 9 9 6 5 6 11 13 11 10 11 10 6 9 6 2 3 3 2 4 3 3 2 2 5 12 11 10 11 14 16 18 15 13 11 9 7 6 5 4 2 0 2 2 3 3 3
30 24 19 17 17 17 14 10 7 8 8 10 6 10 12 10 10 9 6 9 5 5 3 3 5 2 2 3 4 4 8 8 11 10 11 14 16 16 15 14 12 10 9 8 7 6 4 2 3 1 1 1 5 7
25 21 17 10 10 8 6 7 7 6 9 7 8 10 9 9 12 10 12 12 10 7 5 3 2 2 3 4 9 10 12 8 12 10 13 13 14 15 14 13 12 10 9 8 7 6 4 7 5 2 1 1 0 2
25 20 13 8 8 6 6 6 7 7 5 4 6 7 5 4 5 7 9 8 6 4 4 3 3 3 5 6 8 9 11 13 14 13 12 12 14 14 13 11 11 11 10 10 8 6 4 3 3 2 2 2 1 2
20 15 11 13 19 12 7 5 7 6 6 6 6 5 6 6 5 4 4 5 5 2 3 4 5 8 8 9 8 8 10 10 10 7 13 15 15 13 13 13 11 11 9 8 7 6 7 4 3 3 1 1 3 2
18 14 11 11 9 7 8 8 7 6 5 7 5 4 5 3 3 2 3 2 2 2 3 4 5 5 5 5 6 7 10 13 11 10 14 14 17 15 13 13 12 11 9 9 7 7 6 5 4 3 2 2 1 2
17 9 7 7 6 6 4 5 4 4 3 3 3 3 3 2 2 2 1 1 1 3 5 6 5 6 5 5 6 7 10 9 9 10 12 13 14 14 13 13 12 12 10 9 9 8 8 8 6 4 1 1 1 2
9 5 5 5 6 4 4 4 4 4 4 2 2 3 2 2 2 0 1 1 2 2 2 5 5 4 4 5 5 8 12 10 11 11 13 13 14 13 13 13 12 10 10 11 9 9 7 6 8 3 3 2 2 1
4 5 3 5 3 3 3 3 2 2 3 2 2 2 2 1 1 1 1 1 2 3 4 6 7 7 5 7 8 10 12 10 9 11 12 12 14 15 14 12 11 11 12 11 10 8 7 7 6 6 4 4 4 4
3 3 3 2 2 1 3 4 3 4 3 3 2 3 2 1 2 2 2 3 3 3 5 6 7 8 7 8 9 8 11 11 12 11 12 14 13 14 15 15 13 11 11 10 9 8 7 6 7 6 5 6 6 3
3 2 2 1 3 5 4 5 5 3 3 4 4 5 4 3 4 3 4 3 2 3 3 4 7 7 8 9 12 13 10 12 12 11 13 13 11 11 12 12 12 12 12 10 8 8 7 7 7 6 6 5 4 4
2 4 4 6 3 2 3 3 3 4 3 5 9 5 5 4 1 3 4 6 3 1 4 5 7 7 8 10 11 13 14 15 17 15 16 15 16 19 19 18 17 12 12 10 10 9 7 7 7 7 6 5 5 4
2 4 8 3 2 2 3 2 4 3 4 8 4 3 4 2 4 4 6 6 5 4 4 5 6 8 9 10 10 11 12 15 16 16 15 13 15 15 15 14 13 13 12 12 10 9 8 7 7 7 7 5 5 5
3 5 3 3 3 2 2 1 2 4 7 7 5 2 2 2 3 5 6 7 8 7 7 8 9 9 10 10 11 13 14 14 12 12 14 13 12 15 16 15 15 13 12 11 10 9 8 7 7 7 6 5 4 5
5 3 3 2 2 1 1 2 2 2 3 2 6 3 2 4 5 8 9 11 12 13 12 12 12 12 12 13 13 15 17 18 16 16 16 15 16 12 15 16 14 13 12 11 10 8 8 7 6 6 5 6 6 8
4 4 3 3 2 1 3 2 1 1 1 2 3 3 3 3 4 6 9 11 13 14 13 12 12 12 13 12 13 13 14 15 17 17 15 13 14 14 16 15 13 12 12 11 10 9 9 8 7 6 6 7 8 10
4 3 3 4 4 4 3 3 4 3 4 4 4 4 4 3 3 7 8 9 10 11 10 11 13 15 15 15 15 15 14 13 17 16 14 13 13 14 15 14 12 12 12 11 10 9 8 7 6 6 6 8 9 11
Wind_Direction
288 277 268 257 247 232 225 221 217 213 209 202 198 200 195 192 195 197 185 173 151 128 153 182 177 169 164 172 159 160 149 184 182 173 183 187 188 193 197 185 174 190 196 201 242 227 245 154 149 232 90 143 183 198
298 290 259 233 204 195 191 190 193 196 197 196 192 191 189 188 191 192 174 173 136 131 124 144 150 167 179 182 163 169 169 162 162 177 213 167 196 166 200 176 175 206 220 240 189 143 126 137 107 133 163 173 183 213
339 66 169 176 179 175 176 177 175 176 180 181 183 181 180 183 181 179 158 143 142 126 107 118 114 135 135 141 169 167 146 139 164 152 149 171 204 189 194 212 167 203 168 220 190 190 177 157 150 167 175 175 197 230
54 78 111 140 155 160 162 159 158 157 159 163 166 170 172 167 165 157 153 152 152 126 114 92 118 125 143 135 131 155 159 133 147 146 135 161 189 251 198 321 209 153 178 187 215 205 139 200 184 184 181 189 196 228
71 95 100 123 131 138 142 144 144 147 151 154 158 156 155 145 150 149 148 150 155 139 116 118 91 71 111 126 131 137 144 142 142 133 131 162 91 173 140 241 186 191 198 192 272 176 180 166 176 172 179 196 205 264
83 100 104 117 127 132 136 136 136 136 143 144 142 145 143 144 152 147 126 132 145 123 113 89 85 81 96 107 113 117 122 131 141 128 134 109 74 282 198 237 67 195 141 182 164 152 143 144 155 173 179 178 183 253
89 99 107 121 122 125 130 134 134 131 128 125 127 134 141 147 154 156 138 142 137 123 96 106 118 107 115 106 108 106 111 100 121 111 118 133 144 221 202 249 112 153 161 167 135 137 135 152 162 156 159 164 137 91
96 105 107 113 122 127 129 126 125 127 121 123 125 136 139 139 122 116 130 130 120 100 93 101 109 135 151 141 107 109 120 119 56 105 138 153 129 200 228 90 135 134 142 138 157 151 150 148 141 146 152 159 159 332
99 119 109 112 114 124 119 121 120 121 125 131 134 135 132 107 110 120 128 118 100 90 107 129 148 143 153 103 120 109 113 109 95 151 136 186 145 193 82 139 164 159 167 167 151 135 132 143 149 150 147 134 170 318
107 101 108 113 117 117 120 120 123 127 131 136 131 126 81 115 121 121 110 75 62 59 60 126 120 131 149 152 111 131 127 133 160 168 128 230 117 104 97 151 156 161 159 162 157 156 155 154 159 152 143 121 80 353
111 114 111 116 119 123 124 129 130 134 134 129 105 78 122 124 104 84 72 69 117 95 110 133 136 132 141 136 127 84 143 158 186 129 189 179 176 141 144 132 134 142 142 132 125 126 150 162 161 156 142 109 59 4
123 118 121 122 128 131 135 137 140 135 130 127 127 126 118 84 74 82 63 84 147 111 138 140 143 128 113 119 104 161 117 215 152 136 168 208 124 147 153 146 139 134 133 126 126 122 117 123 126 134 136 143 161 299
128 124 123 127 133 133 125 130 134 129 117 113 111 83 52 25 88 150 142 124 123 132 143 138 134 127 118 100 95 113 145 120 130 183 203 69 140 156 158 155 147 141 133 127 124 123 123 127 133 123 152 257 308 303
137 133 126 121 117 122 117 119 121 126 127 77 68 69 14 74 66 37 63 106 116 136 144 139 115 100 119 83 136 108 68 153 185 189 171 141 155 157 159 158 151 145 144 141 133 130 131 137 127 45 337 324 309 319
128 127 124 122 123 122 119 121 114 123 69 66 48 60 60 92 80 71 98 116 128 132 132 122 90 92 93 110 126 118 159 177 201 172 112 126 151 157 160 160 158 156 160 160 162 168 163 146 58 11 1 358 345 326
132 129 120 124 116 117 133 105 96 75 66 63 53 99 109 95 89 90 96 112 130 130 120 89 104 92 95 129 154 185 167 165 150 102 131 141 149 157 161 160 166 164 161 163 169 171 164 153 87 5 353 348 346 347
132 118 123 130 94 106 128 96 49 56 57 55 63 40 77 69 81 99 99 67 109 126 81 106 81 78 134 149 136 151 124 99 126 127 131 148 154 159 171 171 166 167 167 169 168 162 167 164 56 61 47 330 49 352
127 127 128 127 90 103 97 55 68 64 62 38 72 61 74 78 93 73 73 78 85 82 60 72 122 123 158 142 126 133 116 106 117 125 132 141 154 162 165 166 169 170 170 172 170 164 167 134 81 56 36 349 29 10
131 133 135 114 60 84 66 46 53 79 60 72 69 67 80 78 82 74 67 70 74 75 96 87 81 91 87 79 116 129 142 147 144 132 139 151 159 162 165 165 165 164 167 165 153 150 169 179 175 164 189 29 268 308
135 136 132 49 69 71 71 44 59 78 67 75 60 60 64 67 81 71 68 68 52 50 55 50 54 67 92 100 98 127 147 149 147 140 145 155 166 166 168 161 158 162 154 160 168 160 154 138 146 156 201 226 208 286
139 123 84 73 63 64 80 61 66 83 96 84 89 83 79 87 70 58 48 44 47 41 86 77 106 126 129 138 135 132 153 157 164 179 176 165 168 169 159 172 178 158 165 168 167 181 160 174 183 190 202 250 268 253
129 109 76 53 60 64 66 46 89 99 82 108 93 86 91 86 73 39 357 43 63 78 113 120 142 150 158 174 175 169 178 176 171 154 167 174 163 168 169 167 165 170 172 173 171 168 167 173 181 173 158 262 337 273
124 103 49 45 71 60 61 39 75 49 97 97 107 81 70 74 27 6 24 75 88 232 190 185 184 183 195 190 188 182 172 155 156 161 163 162 169 171 168 168 172 171 168 168 171 170 180 191 183 166 201 91 301 300
114 51 41 46 56 88 79 57 69 80 84 66 101 107 91 63 1 344 286 133 222 272 228 219 203 188 184 171 164 177 169 161 172 163 169 166 160 164 166 168 171 171 174 175 169 181 196 179 210 188 201 221 263 281
69 21 51 67 73 109 102 101 88 90 94 92 101 105 112 88 243 249 251 187 216 223 219 243 208 199 200 183 173 192 179 172 173 169 174 169 165 163 162 163 166 170 175 169 180 185 193 204 193 198 217 222 240 276
62 18 28 79 120 115 138 118 140 127 117 121 104 116 151 199 223 225 191 195 240 227 230 215 195 189 186 189 184 179 183 172 175 167 168 175 172 171 172 172 173 176 173 185 189 187 192 188 199 201 220 246 249 242
147 141 125 115 124 124 107 86 116 123 138 152 160 166 170 204 218 179 158 186 155 224 192 181 173 176 185 174 186 194 179 163 174 178 171 160 169 177 179 178 182 195 190 192 186 180 189 191 194 197 207 224 242 255
109 166 164 163 136 131 121 124 147 167 150 153 152 185 189 207 148 140 181 192 222 223 151 151 156 170 173 184 192 191 196 189 187 190 181 178 178 180 181 185 197 206 198 199 201 196 184 181 188 190 199 215 238 268
133 145 142 139 159 165 176 165 161 135 141 173 193 184 187 158 191 194 200 206 212 218 203 204 199 196 196 200 199 199 197 191 186 182 181 180 184 190 199 200 200 202 203 204 203 202 198 194 182 188 198 212 249 278
145 155 153 162 199 164 125 112 132 174 172 179 171 155 176 237 224 224 226 223 224 232 236 232 235 218 216 209 203 198 192 189 191 200 195 198 198 214 208 205 203 201 199 197 200 202 204 207 210 216 228 245 269 286
157 161 134 150 108 103 148 178 131 160 181 195 224 213 235 239 271 251 239 237 241 243 239 235 237 222 221 212 210 205 206 207 204 197 194 197 210 206 201 199 198 197 191 191 194 191 197 197 193 211 232 258 282 293
169 185 168 153 134 169 137 154 177 207 245 227 221 226 257 241 230 251 243 242 246 248 246 231 232 224 223 214 212 212 218 219 210 207 209 213 205 201 198 197 197 200 195 191 191 193 192 196 207 226 255 278 293 301
158 161 148 139 147 171 191 178 196 213 219 219 218 229 232 246 250 252 260 247 242 230 220 234 223 222 226 216 212 216 216 212 206 205 209 209 207 203 198 197 201 201 194 191 191 191 196 208 229 251 273 288 298 307
Height
1236 1229 1223 1217 1218 1224 1233 1243 1256 1270 1286 1302 1317 1332 1347 1361 1372 1378 1387 1393 1399 1405 1407 1413 1418 1422 1427 1434 1441 1451 1459 1463 1463 1462 1465 1459 1457 1460 1463 1470 1485 1486 1487 1484 1483 1484 1482 1484 1490 1491 1495 1498 1500 1502
1226 1217 1205 1204 1207 1214 1223 1233 1243 1256 1272 1292 1311 1328 1344 1357 1367 1377 1386 1394 1399 1409 1411 1415 1422 1427 1431 1435 1437 1447 1444 1450 1455 1456 1460 1458 1463 1462 1463 1470 1481 1485 1482 1474 1476 1477 1484 1486 1489 1494 1496 1497 1500 1501
1223 1209 1200 1199 1203 1211 1220 1230 1241 1252 1268 1288 1309 1326 1340 1352 1363 1373 1384 1394 1400 1408 1417 1420 1425 1427 1430 1434 1438 1440 1444 1449 1453 1454 1460 1460 1462 1465 1462 1460 1471 1479 1480 1482 1484 1485 1484 1489 1492 1494 1497 1498 1499 1500
1227 1213 1207 1202 1205 1213 1223 1233 1244 1256 1272 1291 1307 1323 1339 1352 1363 1374 1382 1394 1401 1405 1415 1429 1430 1430 1432 1435 1437 1441 1445 1450 1454 1458 1460 1462 1461 1463 1456 1457 1462 1472 1478 1479 1484 1484 1486 1489 1491 1494 1496 1498 1498 1499
1235 1225 1220 1218 1217 1222 1229 1240 1254 1267 1282 1297 1313 1328 1341 1354 1369 1377 1388 1394 1400 1403 1410 1425 1428 1434 1436 1437 1439 1443 1448 1451 1454 1458 1463 1461 1462 1465 1465 1465 1463 1470 1472 1477 1472 1480 1484 1485 1491 1494 1496 1497 1498 1498
1246 1242 1235 1235 1237 1241 1248 1257 1268 1281 1293 1307 1321 1334 1346 1359 1370 1379 1391 1397 1397 1396 1409 1425 1439 1440 1439 1441 1445 1447 1450 1453 1455 1458 1460 1463 1467 1466 1464 1459 1465 1468 1473 1476 1477 1482 1484 1488 1491 1493 1495 1497 1497 1497
1258 1256 1254 1253 1253 1258 1264 1273 1282 1294 1307 1319 1331 1344 1356 1367 1374 1378 1383 1390 1396 1400 1410 1427 1437 1444 1445 1446 1449 1452 1454 1456 1458 1461 1461 1461 1465 1467 1468 1463 1467 1472 1475 1478 1480 1484 1487 1489 1491 1493 1494 1495 1495 1496
1270 1269 1268 1270 1272 1277 1284 1292 1300 1309 1319 1330 1341 1354 1363 1369 1375 1379 1386 1392 1397 1401 1411 1427 1439 1443 1446 1447 1451 1455 1456 1458 1461 1461 1464 1462 1468 1469 1466 1467 1471 1473 1477 1480 1483 1485 1485 1489 1491 1492 1494 1495 1495 1496
1282 1283 1284 1286 1288 1293 1299 1306 1313 1321 1331 1340 1350 1359 1365 1372 1379 1385 1391 1395 1397 1405 1412 1422 1426 1438 1445 1449 1453 1457 1457 1460 1463 1462 1461 1465 1463 1465 1467 1469 1472 1476 1480 1482 1485 1486 1488 1490 1491 1493 1494 1494 1495 1495
1295 1296 1297 1300 1303 1307 1312 1318 1326 1334 1342 1349 1356 1361 1369 1376 1382 1388 1396 1397 1402 1408 1414 1418 1423 1432 1442 1447 1453 1457 1457 1458 1462 1462 1465 1463 1460 1469 1472 1473 1474 1478 1480 1483 1485 1487 1489 1490 1492 1493 1494 1494 1493 1493
1306 1309 1312 1314 1317 1322 1327 1333 1339 1345 1349 1354 1359 1368 1376 1381 1387 1391 1396 1401 1407 1413 1417 1421 1427 1430 1443 1445 1450 1453 1457 1459 1457 1460 1463 1460 1459 1471 1474 1475 1477 1480 1482 1484 1486 1487 1489 1490 1492 1493 1493 1493 1493 1492
1316 1320 1323 1327 1331 1334 1338 1342 1347 1351 1355 1359 1363 1374 1380 1385 1388 1394 1402 1404 1400 1410 1417 1423 1428 1434 1440 1444 1449 1455 1456 1459 1453 1462 1465 1458 1466 1470 1474 1477 1479 1481 1483 1484 1485 1486 1488 1489 1491 1492 1492 1492 1491 1490
1325 1329 1333 1336 1340 1344 1347 1351 1354 1358 1361 1367 1373 1380 1385 1390 1391 1389 1401 1401 1406 1411 1416 1421 1428 1434 1440 1445 1452 1454 1455 1454 1459 1461 1451 1451 1464 1469 1474 1477 1479 1481 1483 1484 1486 1487 1488 1488 1489 1491 1490 1489 1489 1488
1333 1337 1341 1345 1348 1352 1354 1357 1361 1363 1368 1371 1378 1387 1390 1392 1393 1393 1388 1394 1403 1408 1415 1421 1426 1432 1440 1445 1448 1451 1455 1456 1456 1455 1449 1456 1464 1469 1473 1476 1479 1481 1483 1484 1486 1487 1487 1488 1488 1488 1488 1488 1488 1487
1341 1345 1349 1352 1355 1358 1361 1363 1365 1367 1371 1378 1384 1393 1400 1405 1405 1405 1404 1404 1409 1412 1418 1424 1428 1434 1440 1446 1446 1452 1458 1452 1447 1445 1453 1460 1465 1469 1473 1476 1479 1480 1481 1483 1484 1485 1486 1487 1487 1488 1488 1487 1487 1486
1348 1352 1356 1360 1362 1364 1366 1367 1368 1369 1379 1388 1396 1401 1404 1405 1408 1408 1409 1411 1416 1418 1421 1423 1429 1436 1441 1441 1444 1443 1441 1441 1447 1451 1458 1462 1465 1469 1472 1475 1477 1478 1480 1481 1483 1485 1486 1487 1487 1487 1487 1487 1486 1485
1354 1357 1363 1367 1368 1369 1370 1370 1372 1380 1391 1398 1405 1406 1407 1409 1411 1414 1417 1418 1419 1422 1424 1425 1429 1437 1439 1438 1440 1437 1440 1445 1452 1457 1460 1462 1465 1468 1470 1473 1475 1477 1479 1481 1482 1484 1485 1486 1487 1487 1488 1487 1486 1485
1360 1365 1368 1371 1371 1372 1374 1376 1384 1394 1402 1407 1408 1412 1413 1415 1417 1419 1420 1420 1422 1423 1425 1428 1432 1435 1436 1437 1438 1444 1450 1453 1455 1458 1460 1462 1464 1467 1469 1472 1474 1476 1478 1480 1482 1483 1484 1485 1487 1488 1487 1486 1486 1486
1367 1370 1373 1375 1375 1376 1382 1389 1394 1404 1412 1414 1416 1417 1418 1420 1421 1422 1423 1424 1425 1427 1429 1431 1433 1432 1437 1440 1443 1447 1451 1453 1456 1459 1460 1463 1464 1467 1469 1472 1474 1476 1477 1479 1481 1484 1485 1485 1486 1488 1488 1488 1488 1487
1373 1375 1378 1378 1377 1381 1390 1399 1402 1408 1416 1420 1421 1422 1424 1426 1426 1426 1427 1428 1429 1430 1432 1434 1437 1441 1442 1445 1447 1449 1451 1453 1454 1458 1461 1463 1465 1467 1469 1471 1474 1475 1478 1480 1481 1483 1484 1485 1486 1486 1487 1487 1487 1486
1380 1382 1383 1383 1382 1387 1398 1405 1410 1415 1419 1422 1425 1425 1429 1430 1431 1432 1432 1432 1433 1435 1436 1440 1441 1442 1443 1445 1447 1449 1450 1453 1455 1457 1459 1461 1464 1466 1469 1471 1472 1476 1477 1479 1480 1482 1483 1485 1485 1485 1485 1485 1484 1484
1386 1388 1388 1389 1392 1398 1406 1411 1414 1418 1422 1425 1427 1428 1431 1433 1434 1435 1435 1435 1436 1438 1439 1441 1442 1443 1444 1446 1447 1448 1449 1451 1453 1455 1457 1459 1462 1465 1467 1469 1472 1474 1476 1478 1479 1481 1482 1483 1483 1483 1483 1483 1482 1482
1391 1392 1393 1396 1400 1407 1418 1416 1418 1421 1424 1427 1428 1430 1433 1435 1436 1436 1436 1437 1439 1438 1439 1440 1441 1442 1443 1445 1446 1447 1449 1451 1453 1455 1456 1459 1461 1463 1465 1468 1470 1473 1475 1477 1478 1479 1480 1481 1480 1482 1481 1482 1482 1482
1397 1398 1401 1404 1408 1415 1418 1420 1422 1424 1427 1429 1430 1434 1436 1437 1438 1437 1436 1437 1439 1438 1438 1439 1441 1441 1443 1444 1446 1446 1448 1451 1451 1453 1455 1457 1459 1462 1464 1466 1469 1471 1473 1475 1476 1477 1478 1479 1479 1480 1480 1481 1481 1481
1404 1409 1409 1411 1413 1415 1418 1421 1424 1426 1428 1431 1433 1435 1437 1438 1437 1436 1437 1437 1437 1438 1438 1437 1439 1441 1443 1444 1445 1445 1446 1449 1450 1452 1453 1456 1458 1460 1463 1466 1468 1469 1471 1472 1474 1475 1476 1476 1477 1479 1479 1480 1480 1479
1408 1412 1412 1413 1415 1414 1416 1419 1422 1425 1428 1431 1435 1438 1439 1439 1438 1434 1434 1435 1435 1436 1435 1435 1437 1439 1440 1442 1443 1444 1445 1447 1449 1450 1452 1454 1456 1459 1461 1463 1465 1467 1469 1471 1472 1473 1473 1474 1476 1476 1477 1477 1476 1476
1409 1412 1413 1414 1415 1415 1418 1421 1423 1424 1426 1428 1432 1436 1436 1434 1431 1432 1433 1433 1434 1433 1433 1433 1435 1438 1439 1440 1441 1442 1443 1445 1448 1449 1451 1453 1456 1458 1460 1462 1464 1465 1465 1467 1469 1471 1472 1472 1473 1475 1476 1475 1474 1474
1411 1412 1413 1416 1415 1416 1417 1418 1421 1421 1423 1425 1429 1430 1429 1427 1426 1431 1431 1431 1432 1433 1433 1433 1435 1437 1438 1438 1438 1439 1440 1443 1445 1447 1448 1451 1452 1454 1456 1458 1460 1462 1463 1465 1466 1467 1469 1470 1471 1473 1474 1474 1472 1471
1412 1412 1414 1416 1416 1417 1417 1417 1418 1420 1423 1424 1425 1424 1426 1427 1427 1428 1429 1429 1431 1432 1432 1433 1433 1434 1435 1436 1437 1438 1439 1441 1443 1445 1447 1450 1451 1453 1454 1456 1458 1460 1461 1463 1464 1465 1466 1467 1469 1470 1470 1470 1469 1469
1411 1412 1413 1414 1415 1414 1417 1418 1419 1419 1420 1421 1422 1424 1426 1426 1426 1427 1427 1428 1429 1430 1431 1431 1431 1432 1433 1434 1435 1436 1438 1440 1443 1445 1447 1448 1450 1450 1452 1454 1456 1458 1459 1461 1461 1462 1464 1465 1466 1467 1468 1468 1467 1467
1410 1412 1413 1413 1414 1417 1416 1416 1417 1418 1419 1421 1421 1424 1426 1425 1424 1424 1425 1425 1425 1426 1427 1428 1428 1430 1430 1432 1432 1434 1435 1437 1439 1441 1443 1445 1446 1448 1450 1452 1454 1456 1458 1459 1460 1461 1462 1464 1465 1466 1466 1466 1465 1465
1411 1411 1411 1412 1415 1416 1416 1419 1420 1420 1421 1422 1422 1422 1423 1423 1424 1421 1419 1420 1420 1421 1422 1424 1425 1427 1428 1429 1431 1432 1432 1434 1437 1439 1441 1443 1444 1446 1448 1450 1452 1454 1456 1457 1459 1460 1461 1462 1463 1464 1464 1464 1463 1462
1411 1412 1412 1413 1415 1416 1417 1419 1419 1420 1421 1420 1420 1421 1421 1421 1419 1417 1414 1415 1416 1416 1418 1419 1421 1422 1423 1425 1427 1428 1430 1432 1434 1437 1440 1441 1443 1445 1447 1449 1451 1452 1454 1456 1457 1459 1460 1461 1461 1462 1462 1461 1461 1459